Location: ČR
(50.0000°N, 15.0000°E)
Time: 20:53:15
(UTC+00:00)

Vanguard 3 - Pass Details

Date: 26 October 2021
Orbit: 508 x 3260 km, 33.4° (Epoch: 04 December)

Event Time Altitude Azimuth Distance (km) Brightness Sun altitude
Rises 15:31:47 0° 217° (SW) 3,107 11.3 1.5°
Reaches altitude 10° 15:34:41 10° 195° (SSW) 2,478 10.2 1.1°
Maximum altitude 15:38:21 17° 156° (SSE) 2,417 9.6 0.5°
Drops below altitude 10° 15:43:12 10° 120° (ESE) 3,457 10.0 -0.2°
Sets 15:48:26 0° 104° (ESE) 5,048 10.7 -1.0°
